Location: Düngen
(52.0952°N, 10.0219°E)
Time: 19:46:19
(UTC+00:00)

Cosmos 1833 - Pass Details

Date: 11 March 2026
Orbit: 833 x 865 km, 70.9° (Epoch: 20 April)

Event Time Altitude Azimuth Distance (km) Brightness Sun altitude
Rises 18:57:00 0° 329° (NNW) 3,442 8.1 -16.0°
Reaches altitude 10° 18:59:32 10° 334° (NNW) 2,497 7.2 -16.4°
Maximum altitude 19:05:10 54° 52° (NE) 1,027 4.4 -17.2°
Enters shadow 19:07:51 29° 116° (ESE) 1,497 4.9 -17.6°
